Latest  Newer  Older  Last 2 hours slideshow  Last 24 hours slideshow  Refresh every 5 minutes 
Current image  Latest image  Rain/snow radar  Cloud coverage sat images 

All time is UTC (add 2 hours to UTC in wintertime, 3 hours to UTC in DST for Latvia local time)

2024/02/20 22:20 EVRA 202220Z 20002KT 9999 OVC016 M00/M02 Q1015 NOSIG
2024/02/20 22:20 EVLA 202220Z AUTO 26006KT 9999 -RA SCT004/// BKN011/// OVC017/// 01/01 Q1015
2024/02/20 22:20 EVVA 202220Z AUTO 21002KT 9999 BKN006 OVC012 02/02 Q1014
2024/02/20 22:20 EYKA 202220Z AUTO 28004KT 250V310 5000 -UP OVC004/// 00/M01 Q1016
2024/02/20 22:20 EYPA 202220Z 26003KT 200V010 9999 OVC007 02/01 Q1016
2024/02/20 22:20 EYSA 202220Z 24004KT 9999 SCT005 OVC021 M00/M01 Q1015 NOSIG
2024/02/20 22:20 EYVI 202220Z 30005KT 6000 OVC004 M01/M01 Q1015 TEMPO 1500 BR

2024/02/20 22:20 EEKE 202220Z AUTO 17005KT 4300NDV -RASN BR OVC004 M00/M00 Q1014
2024/02/20 22:20 EEPU 202220Z AUTO VRB02KT 9999 OVC011/// M02/M02 Q1014
2024/02/20 22:20 EETN 202220Z 21004KT 180V240 9999 OVC021 M01/M03 Q1014
2024/02/20 22:20 EETU 202220Z AUTO 15004KT 9999 BKN016/// BKN018/// OVC030/// M02/M03 Q1014
CD  STATION         ICAO  IATA  SYNOP   LAT     LONG   ELEV   M  N  V  U  A  C
   RIGA AIRPORT     EVRA               56 55N  023 58E   10   X     T          6 LV
   LIELVARDE        EVGA               56 47N  024 51E   61   X     T          7 LV
   LIEPAJA INTL     EVLA        26406  56 31N  021 06E    4   X                8 LV
   VENTPILS         EVVA               57 21N  021 33E    6   X                8 LV
   KAUNAS           EYKA               54 54N  023 55E   77   X     T          6 LT
   PALANGA INTL     EYPA               55 55N  021 03E   10   X                6 LT
   SIAULIAI INTL    EYSA               55 54N  023 24E  135   X     T          6 LT
   VILNIUS INTL     EYVI        26730  54 38N  025 17E  197   X     T          6 LT
   AMARI AIR BASE   EEEI               59 16N  024 12E   19   X     T          7 EE
   KARDLA           EEKA        26116  58 59N  022 50E    4   X                8 EE
   KURESSAARE       EEKE               58 14N  022 31E    4   X                8 EE
   PARNU            EEPU               58 25N  024 28E   14   X                8 EE
   TALLINN          EETN        26038  59 24N  024 49E   40   X     T          8 EE
   TARTU            EETU               58 19N  026 41E   67   X                8 EE

!   CD = 2 letter state (province) abbreviation
!   STATION = 16 character station long name
!   ICAO = 4-character international id
!   IATA = 3-character (FAA) id
!   SYNOP = 5-digit international synoptic number
!   LAT = Latitude (degrees minutes)
!   LON = Longitude (degree minutes)
!   ELEV = Station elevation (meters)
!   M = METAR reporting station.   Also Z=obsolete? site
!   N = NEXRAD (WSR-88D) Radar site
!   V = Aviation-specific flag (V=AIRMET/SIGMET end point, A=ARTCC T=TAF U=T+V)
!   U = Upper air (rawinsonde=X) or Wind Profiler (W) site
!   A = Auto (A=ASOS, W=AWOS, M=Meso, H=Human, G=Augmented) (H/G not yet impl.)
!   C = Office type F=WFO/R=RFC/C=NCEP Center
!   Digit that follows is a priority for plotting (0=highest)
!   Country code (2-char) is last column